Regional Weather Roundup
Issued by NWS

Home | Current Version | Previous Version | Text Only | Print | Product List | Glossary On
Versions: 1 2 3 4 5 6 7 8 9 10 11 12 13 14 15 16 17 18 19 20 21 22 23 24 25 26 27 28 29 30 31 32 33 34 35 36 37 38 39 40 41 42 43 44 45 46 47 48 49 50
000
ASUS44 KFWD 061715
RWRTX
NORTH TEXAS HOURLY WEATHER ROUNDUP
NATIONAL WEATHER SERVICE FORT WORTH TX
1200 PM CDT MON JUL 06 2015

NOTE: "FAIR" INDICATES FEW OR NO CLOUDS BELOW 12,000 FEET WITH NO
SIGNIFICANT WEATHER AND/OR OBSTRUCTIONS TO VISIBILITY.

TXZ118-119-061800-
DALLAS/FORT WORTH METROPLEX

CITY           SKY/WX    TMP DP  RH WIND       PRES   REMARKS
DFW AIRPORT    PTSUNNY   88  69  53 S21G30    30.00F HX  92
DALLAS LOVE    PTSUNNY   89  69  51 S13G29    30.02F HX  93
FTW MEACHAM    MOSUNNY   89  70  53 S18G26    30.00F HX  94
DAL-EXECUTIVE  MOSUNNY   86  71  60 S12G24    30.02F HX  91
FTW-ALLIANCE   MOSUNNY   88  71  57 S16G28    30.00S HX  94
FTW-NAS-JRB    PTSUNNY   89  71  55 S21       30.01F HX  95
FTW-SPINKS     MOSUNNY   90  68  48 S21G28    30.03F HAZE    HX  93
ARLINGTON      MOSUNNY  N/A N/A N/A S21       30.01F
GRAND PRAIRIE  SUNNY     86  72  62 S17G25    30.03F HX  92
ADDISON        MOSUNNY   86  66  51 SW14G25   30.04S
MESQUITE       MOSUNNY   88  70  55 S17G25      N/A  HX  92
LANCASTER      MOSUNNY   87  67  52 S18G30    30.04S HX  90
$$

TXZ091>094-102>105-117-120-121-131>134-061800-
NORTH CENTRAL TEXAS

CITY           SKY/WX    TMP DP  RH WIND       PRES   REMARKS
SHRMAN/DENISON PTSUNNY   87  74  63 S20G26    30.02S HX  95
GAINESVILLE    CLOUDY    85  72  64 S17G25    30.02S HX  90
BRIDGEPORT     PTSUNNY   87  73  62 S13G18    30.01F HX  93
DECATUR        MOSUNNY   85  69  58 S18G25    30.01S
DENTON         PTSUNNY   87  72  60 S18G25    30.00F HX  93
MCKINNEY       MOSUNNY   88  71  57 S21G28    30.02S HX  94
GREENVILLE     PTSUNNY   86  70  58 S18       30.04F HX  90
ROCKWALL       PTSUNNY   85  71  61 SW17G26   30.03S HX  90
TERRELL        MOSUNNY   87  72  60 S15       30.04F HX  93
WAXAHACHIE     MOSUNNY   87  71  59 S17G24    30.04F HX  93
CLEBURNE       MOSUNNY   86  72  62 S15G24    30.04S HX  92
GRANBURY       CLOUDY    90  67  47 S17       30.02S HX  93
$$

TXZ083>090-098>101-113>116-127>130-139>142-154-155-061800-
WESTERN NORTH TEXAS

CITY           SKY/WX    TMP DP  RH WIND       PRES   REMARKS
WICHITA FALLS  CLOUDY    86  73  65 S21       29.95F HX  93
WF-KICKAPOO    CLOUDY    89  72  56 S16       29.97S HX  95
VERNON         PTSUNNY   90  67  46 S16G22    29.95S HX  93
ABILENE        MOSUNNY   88  70  55 S17G28    29.99F HX  93
ABILENE-DYESS  PTSUNNY   87  72  60 S22G29    29.97F HX  93
BRECKENRIDGE   CLOUDY    88  69  54 S17G24    29.99S HX  92
GRAHAM         PTSUNNY   87  73  61 S10G18    29.97F HX  94
MINERAL WELLS  PTSUNNY   87  72  60 S17G24    29.99F HX  93
STEPHENVILLE   MOSUNNY   85  65  49 S16G28    30.05F
COMANCHE       SUNNY     87  67  52 S24       30.02F HX  90
BROWNWOOD      PTSUNNY   86  66  51 S18G26    30.02F
COLEMAN        CLOUDY    84  71  64 S12G18    30.03S
BRADY          MOSUNNY   84  66  54 N14       30.04R
$$

TXZ143>147-156>162-174-175-061800-
CENTRAL TEXAS

CITY           SKY/WX    TMP DP  RH WIND       PRES   REMARKS
WACO           MOSUNNY   89  69  51 S21       30.04F HX  93
WACO-TSTC      MOSUNNY   88  70  55 S16G26    30.05S HX  92
WACO-MCGREGOR  MOSUNNY   88  70  55 S18G28    30.05F HX  92
HILLSBORO      MOSUNNY   86  68  55 S18G25    30.05S
CORSICANA      LGT RAIN  89  71  55 S18G26    30.06F HX  95
MEXIA          PTSUNNY   86  72  64 MISG      30.06S HX  92
HEARNE         PTSUNNY   86  73  66 S16G23    30.08S HX  93
CAMERON        PTSUNNY   86  72  62 S15G21    30.07S HX  93
TEMPLE         MOSUNNY   86  68  54 S23       30.05S
KILLEEN        SUNNY     86  68  53 S18       30.06R
KILLEEN-SKYLRK MOSUNNY   88  68  51 S21       30.05R HX  91
FORT HOOD      MOSUNNY   88  68  51 S20       30.05R HX  91
GATESVILLE     SUNNY     88  66  48 S15G22    30.07R HX  90
HAMILTON       MOSUNNY   87  66  49 S21G28    30.05F
LAMPASAS       SUNNY     91  70  50 S16G23    30.05S HX  96
$$

TXZ095>097-106>112-122>126-135>138-148>153-164>167-061800-
EAST TEXAS

CITY           SKY/WX    TMP DP  RH WIND       PRES   REMARKS
PARIS          PTSUNNY   84  72  65 S23       30.05S
SULPHUR SPRNGS PTSUNNY   85  71  61 SW20G26   30.07S HX  90
MOUNT PLEASANT PTSUNNY   87  72  60 S14       30.07F HX  93
GILMER         CLOUDY    84  71  63 S10G21    30.07S
MINEOLA        PTSUNNY   88  73  62 S13G18    30.07S HX  96
TYLER          PTSUNNY   87  71  58 S20       30.07F HX  93
LONGVIEW       PTSUNNY   92  73  53 S17       30.07F HX 100
MARSHALL       PTSUNNY   89  75  63 S10G20    30.10F HX  98
ATHENS         PTSUNNY   86  72  62 S10G20    30.06S HX  92
PALESTINE      PTSUNNY   88  72  60 S16G22    30.08F HX  94
JACKSONVILLE   MOSUNNY   88  71  57 S13G18    30.11F HX  93
HENDERSON      PTSUNNY   87  73  62 S9G16     30.09F HX  94
CENTER         PTSUNNY   86  74  65 S13       30.10F HX  94
NACOGDOCHES    PTSUNNY   88  73  62 S10G21    30.09S HX  96
LUFKIN         MOSUNNY   90  74  59 S9        30.09F HX  99
$$

SUPPLEMENTAL OBSERVATIONS (CENTRAL)

CITY           SKY/WX    TMP DP  RH WIND       PRES   REMARKS
LAKE TEXOMA      N/A     84  70  61 S16         N/A
PAT MAYSE LAKE   N/A     82  73  74 S20         N/A
GREENVILLE       N/A     84  68  58 S16G24      N/A
CEDAR HILL       N/A     88  68  51 S15G23      N/A  HX  91
LAKE LIMESTONE   N/A     88  70  55 S16G22      N/A  HX  92
MCGREGOR         N/A     88  68  51 S16G29      N/A  HX  91
TEMPLE           N/A     88  70  55 S20G26      N/A  HX  92
$$

SUPPLEMENTAL OBSERVATIONS (WEST)

CITY           SKY/WX    TMP DP  RH WIND       PRES   REMARKS
MILLERS CREEK    N/A     90  72  55 S16G24      N/A  HX  96
POSSUM KINGDOM   N/A     86  72  62 S13G22      N/A  HX  92
GRANBURY         N/A     90  66  45 S20G26      N/A  HX  92
COMANCHE         N/A     86  68  54 S21G28      N/A
HAMBY            N/A     90  70  51 S20G28      N/A  HX  95
IVIE RESERVOIR   N/A     88  68  51 S16G22      N/A  HX  91
COLORADO BEND    N/A    N/A N/A N/A SW15G29     N/A
$$

SUPPLEMENTAL OBSERVATIONS (EAST)

CITY           SKY/WX    TMP DP  RH WIND       PRES   REMARKS
CADDO LAKE       N/A     88  75  66 S5G15       N/A  HX  97
GILMER           N/A     88  72  58 S9G21       N/A  HX  94
HENDERSON        N/A     88  73  62 S13G23      N/A  HX  96
LUFKIN           N/A     90  72  55 MISG        N/A  HX  96
N SABINE NF      N/A     90  75  62 MISG        N/A  HX 100
S SABINE NF      N/A     90  77  66 CALM        N/A  HX 102
$$

SUPPLEMENTAL OBSERVATIONS ARE A COLLECTION OF AUTOMATED INSTRUMENTS
THAT ARE MAINTAINED BY A VARIETY OF FEDERAL AND STATE AGENCIES.
CERTAIN ELEMENTS...SUCH AS HUMIDITY VALUES AND SUSTAINED WIND
SPEEDS...MAY BE APPROXIMATED.



USA.gov is the U.S. government's official web portal to all federal, state and local government web resources and services.